Zurück zum Katalog

SL-19 DEB

AktivUNKNOWN
NORAD 23485·DEBRIS·🇷🇺 Russia

Gestartet Dec 26, 1994 von Baikonur Cosmodrome

Loading…

Nächste Überflüge (nächste 24 Stunden)

TLE

AktuellSource: Space-Track

Epoche: Sep 14, 2026, 07:54 UTC

1 23485U 94085H   26257.32949130 -.00005329  00000-0 -14511+0 0  9993
2 23485  64.6384  29.1404 0173431 174.2474 186.0495 11.29952869307367

Verfolge SL-19 DEB in Echtzeit mit AllMySat

Download on the App Store